Location: Delettes
(50.6178°N, 2.2123°E)
Time: 14:19:27
(UTC+00:00)

CZ-2C R/B - Pass Details

Date: 27 February 2020
Orbit: 641 x 704 km, 98.4° (Epoch: 08 April)

Event Time Altitude Azimuth Distance (km) Brightness Sun altitude
Rises 19:39:44 0° 16° (NNE) 3,043 7.1 -21.5°
Reaches altitude 10° 19:41:59 10° 20° (NNE) 2,133 6.2 -21.9°
Maximum altitude 19:46:38 66° 103° (ESE) 753 3.6 -22.6°
Drops below altitude 10° 19:51:20 10° 186° (S) 2,151 6.2 -23.3°
Sets 19:53:36 0° 189° (S) 3,070 7.1 -23.6°
